Big Rapids, MI

4:47 AM EDT on October 21, 2019 (GMT -0400)
Roben-Hood

Weather History for KRQB - August, 2019

Change the Weather History Date:

Saturday, August 31, 2019

  Actual Average Record
Temperature  
Mean Temperature 56 °F -  
Max Temperature 70 °F 77 °F 89 °F (2012)
Min Temperature 42 °F 52 °F 41 °F (1999)
Degree Days  
Heating Degree Days 9    
Growing Degree Days 6 (Base 50)    
Moisture  
Dew Point 47 °F    
Average Humidity 70    
Maximum Humidity 97    
Minimum Humidity 39    
Precipitation  
Precipitation 0.00 in - - ()
Sea Level Pressure  
Sea Level Pressure 30.31 in    
Wind  
Wind Speed 2 mph (SSE)    
Max Wind Speed 13 mph    
Max Gust Speed 21 mph    
Visibility 10 miles    
Events      
Averages and records for this station are not official NWS values.
T = Trace of Precipitation, MM = Missing Value Source: NWS Daily Summary

Daily Weather History Graph

Daily Weather History Graph

Search for Another Location

Airport or City:

Astronomy

Aug. 31, 2019 Rise Set
Actual Time 7:04 AM EDT 8:19 PM EDT
Civil Twilight 6:34 AM EDT 8:49 PM EDT
Nautical Twilight 5:58 AM EDT 9:24 PM EDT
Astronomical Twilight 5:21 AM EDT 10:02 PM EDT
Moon 8:20 AM EDT (8/31) 9:29 PM EDT (8/31)
Length of Visible Light 14h 14m
Length of Day
13h 15m
New Moon, 2% of the Moon is Illuminated
Aug 31
New Moon
Sep 5
First Quarter
Sep 14
Full
Sep 21
Last Quarter
Sep 28
New

Hourly Weather History & Observations

Time (EDT) Temp. Windchill Dew Point Humidity Pressure Visibility Wind Dir Wind Speed Gust Speed Precip Events Conditions
12:18 AM 50.9 °F - 47.3 °F 87% 30.25 in 10.0 mi Calm Calm - N/A   Clear
12:36 AM 50.2 °F - 46.9 °F 89% 30.25 in 10.0 mi Calm Calm - N/A   Clear
12:55 AM 49.3 °F - 46.8 °F 91% 30.26 in 10.0 mi Calm Calm - N/A   Clear
12:56 AM 49.3 °F - 46.8 °F 91% 30.26 in 10.0 mi Calm Calm - N/A   Clear
1:18 AM 46.9 °F - 45.0 °F 93% 30.26 in 10.0 mi Calm Calm - N/A   Clear
1:37 AM 48.7 °F - 46.8 °F 93% 30.27 in 10.0 mi Calm Calm - N/A   Clear
1:55 AM 46.4 °F - 44.6 °F 93% 30.27 in 10.0 mi Calm Calm - N/A   Clear
2:20 AM 47.7 °F - 46.2 °F 95% 30.28 in 10.0 mi Calm Calm - N/A   Clear
2:37 AM 46.9 °F - 45.1 °F 93% 30.28 in 10.0 mi Calm Calm - N/A   Clear
2:55 AM 45.5 °F - 43.9 °F 94% 30.27 in 10.0 mi Calm Calm - N/A   Clear
2:56 AM 45.5 °F 44.2 °F 44.1 °F 95% 30.28 in 10.0 mi WSW 3.5 mph - N/A   Clear
3:15 AM 46.4 °F 43.5 °F 44.8 °F 94% 30.28 in 10.0 mi West 5.8 mph - N/A   Clear
3:16 AM 46.4 °F 42.9 °F 45.0 °F 95% 30.28 in 10.0 mi West 6.9 mph - N/A   Clear
3:35 AM 44.4 °F - 42.8 °F 94% 30.28 in 10.0 mi Calm Calm - N/A   Clear
3:57 AM 45.1 °F - 43.9 °F 95% 30.29 in 10.0 mi Calm Calm - N/A   Clear
4:15 AM 45.3 °F - 43.7 °F 94% 30.29 in 10.0 mi Calm Calm - N/A   Clear
4:35 AM 44.4 °F - 43.0 °F 95% 30.29 in 10.0 mi Calm Calm - N/A   Clear
4:39 AM 44.6 °F - 43.0 °F 94% 30.29 in 10.0 mi Calm Calm - N/A   Clear
4:57 AM 43.9 °F - 42.4 °F 95% 30.29 in 10.0 mi Calm Calm - N/A   Clear
5:15 AM 44.4 °F - 43.0 °F 95% 30.29 in 10.0 mi Calm Calm - N/A   Clear
5:16 AM 44.4 °F - 43.0 °F 95% 30.29 in 10.0 mi Calm Calm - N/A   Clear
5:35 AM 43.7 °F - 42.3 °F 95% 30.30 in 10.0 mi Calm Calm - N/A   Clear
5:36 AM 43.5 °F - 42.1 °F 95% 30.30 in 10.0 mi Calm Calm - N/A   Clear
5:58 AM 43.2 °F - 41.9 °F 95% 30.30 in 10.0 mi Calm Calm - N/A   Clear
6:16 AM 43.3 °F - 42.1 °F 95% 30.31 in 10.0 mi Calm Calm - N/A   Clear
6:35 AM 43.7 °F - 42.4 °F 95% 30.32 in 10.0 mi Calm Calm - N/A   Clear
6:36 AM 43.7 °F - 42.3 °F 95% 30.32 in 10.0 mi Calm Calm - N/A   Clear
6:55 AM 42.6 °F - 41.5 °F 96% 30.32 in 10.0 mi Calm Calm - N/A   Clear
7:18 AM 43.0 °F - 41.9 °F 96% 30.33 in 10.0 mi Calm Calm - N/A   Clear
7:35 AM 42.8 °F - 41.7 °F 96% 30.34 in 10.0 mi Calm Calm - N/A   Clear
7:55 AM 44.2 °F - 43.3 °F 97% 30.34 in 10.0 mi Calm Calm - N/A   Clear
7:56 AM 44.4 °F - 43.5 °F 97% 30.34 in 10.0 mi Calm Calm - N/A   Clear
8:17 AM 45.7 °F - 44.8 °F 97% 30.35 in 10.0 mi Calm Calm - N/A   Clear
8:35 AM 46.8 °F - 45.5 °F 95% 30.35 in 10.0 mi WNW 3.5 mph - N/A   Clear
8:55 AM 48.9 °F - 47.7 °F 95% 30.35 in 10.0 mi WNW 4.6 mph - N/A   Clear
8:56 AM 48.9 °F - 47.7 °F 95% 30.35 in 10.0 mi WNW 4.6 mph - N/A   Clear
9:18 AM 50.4 °F - 48.9 °F 95% 30.36 in 10.0 mi SSW 5.8 mph - N/A   Clear
9:35 AM 52.0 °F - 50.4 °F 94% 30.36 in 10.0 mi Calm Calm - N/A   Clear
9:55 AM 53.8 °F - 50.7 °F 89% 30.37 in 10.0 mi Calm Calm - N/A   Clear
10:19 AM 56.5 °F - 51.4 °F 83% 30.37 in 10.0 mi SSE 4.6 mph - N/A   Clear
10:36 AM 59.2 °F - 52.2 °F 78% 30.36 in 10.0 mi Calm Calm - N/A   Clear
10:55 AM 62.8 °F - 49.8 °F 63% 30.35 in 10.0 mi Calm Calm - N/A   Clear
10:56 AM 63.0 °F - 49.5 °F 61% 30.35 in 10.0 mi Calm Calm - N/A   Clear
11:15 AM 65.1 °F - 48.7 °F 55% 30.35 in 10.0 mi NNE 4.6 mph - N/A   Clear
11:20 AM 65.3 °F - 48.7 °F 55% 30.35 in 10.0 mi SSE 3.5 mph - N/A   Clear
11:36 AM 67.1 °F - 47.7 °F 50% 30.35 in 10.0 mi SSE 8.1 mph 17.3 mph N/A   Clear
11:55 AM 67.6 °F - 46.0 °F 46% 30.35 in 10.0 mi East 6.9 mph - N/A   Clear
11:56 AM 67.6 °F - 46.2 °F 46% 30.34 in 10.0 mi East 6.9 mph - N/A   Clear
12:15 PM 69.8 °F - 46.4 °F 43% 30.34 in 10.0 mi East 10.4 mph 19.6 mph N/A   Clear
12:20 PM 69.8 °F - 46.4 °F 43% 30.34 in 10.0 mi East 9.2 mph 19.6 mph N/A   Clear
12:37 PM 70.0 °F - 45.9 °F 42% 30.34 in 10.0 mi SSE 4.6 mph 18.4 mph N/A   Clear
12:55 PM 69.1 °F - 44.6 °F 41% 30.34 in 10.0 mi SSE 10.4 mph - N/A   Clear
12:56 PM 69.3 °F - 44.8 °F 41% 30.34 in 10.0 mi SSE 12.7 mph - N/A   Clear
1:15 PM 70.0 °F - 46.0 °F 42% 30.34 in 10.0 mi ESE 11.5 mph 20.7 mph N/A   Scattered Clouds
1:16 PM 70.0 °F - 45.9 °F 42% 30.34 in 10.0 mi SE 8.1 mph 20.7 mph N/A   Scattered Clouds
1:39 PM 69.3 °F - 44.8 °F 41% 30.34 in 10.0 mi ESE 9.2 mph - N/A   Scattered Clouds
1:57 PM 68.7 °F - 43.5 °F 40% 30.34 in 10.0 mi SSE 10.4 mph 16.1 mph N/A   Scattered Clouds
2:15 PM 70.0 °F - 44.2 °F 40% 30.34 in 10.0 mi SSE 6.9 mph - N/A   Clear
2:16 PM 70.0 °F - 44.1 °F 39% 30.34 in 10.0 mi SSE 6.9 mph - N/A   Clear
2:35 PM 69.3 °F - 43.5 °F 39% 30.34 in 10.0 mi SSE 6.9 mph 17.3 mph N/A   Clear
2:58 PM 69.8 °F - 44.2 °F 40% 30.33 in 10.0 mi East 5.8 mph - N/A   Clear
3:16 PM 69.4 °F - 46.4 °F 44% 30.33 in 10.0 mi SSE 5.8 mph - N/A   Clear
3:35 PM 70.3 °F - 44.4 °F 39% 30.32 in 10.0 mi ESE 9.2 mph 19.6 mph N/A   Clear
3:36 PM 70.2 °F - 44.2 °F 39% 30.32 in 10.0 mi ESE 6.9 mph 19.6 mph N/A   Clear
3:59 PM 69.1 °F - 45.5 °F 43% 30.32 in 10.0 mi SSE 6.9 mph - N/A   Clear
4:16 PM 69.4 °F - 46.0 °F 43% 30.32 in 10.0 mi SSE 8.1 mph - N/A   Clear
4:35 PM 70.0 °F - 45.3 °F 41% 30.32 in 10.0 mi SE 6.9 mph - N/A   Clear
4:36 PM 70.2 °F - 45.3 °F 41% 30.32 in 10.0 mi SSE 6.9 mph - N/A   Clear
4:55 PM 69.6 °F - 45.3 °F 42% 30.31 in 10.0 mi SSE 3.5 mph - N/A   Clear
4:59 PM 69.3 °F - 44.8 °F 41% 30.31 in 10.0 mi South 4.6 mph - N/A   Clear
5:16 PM 69.3 °F - 44.4 °F 41% 30.30 in 10.0 mi SSE 6.9 mph - N/A   Clear
5:35 PM 69.6 °F - 47.1 °F 45% 30.30 in 10.0 mi SE 9.2 mph 16.1 mph N/A   Clear
5:36 PM 69.6 °F - 46.9 °F 44% 30.30 in 10.0 mi SE 8.1 mph 16.1 mph N/A   Clear
5:55 PM 68.9 °F - 46.0 °F 44% 30.30 in 10.0 mi SSE 9.2 mph - N/A   Clear
5:59 PM 68.7 °F - 46.0 °F 44% 30.30 in 10.0 mi SSE 4.6 mph - N/A   Clear
6:17 PM 68.2 °F - 46.4 °F 46% 30.30 in 10.0 mi SSE 5.8 mph - N/A   Clear
6:35 PM 68.0 °F - 47.1 °F 47% 30.29 in 10.0 mi SSE 8.1 mph - N/A   Clear
6:36 PM 68.0 °F - 47.3 °F 47% 30.29 in 10.0 mi SSE 5.8 mph - N/A   Clear
6:55 PM 67.5 °F - 46.8 °F 47% 30.29 in 10.0 mi SE 8.1 mph - N/A   Clear
6:59 PM 67.1 °F - 46.6 °F 48% 30.29 in 10.0 mi SE 5.8 mph - N/A   Clear
7:17 PM 66.2 °F - 46.9 °F 50% 30.28 in 10.0 mi SSE 3.5 mph - N/A   Clear
7:35 PM 64.8 °F - 49.6 °F 58% 30.27 in 10.0 mi South 6.9 mph - N/A   Clear
7:36 PM 64.8 °F - 49.5 °F 58% 30.28 in 10.0 mi South 6.9 mph - N/A   Clear
7:55 PM 64.4 °F - 50.2 °F 60% 30.27 in 10.0 mi Calm Calm - N/A   Clear
8:18 PM 63.3 °F - 50.4 °F 63% 30.27 in 10.0 mi SW 3.5 mph - N/A   Clear
8:35 PM 61.9 °F - 52.3 °F 71% 30.27 in 10.0 mi Calm Calm - N/A   Clear
8:36 PM 62.1 °F - 52.5 °F 71% 30.27 in 10.0 mi Calm Calm - N/A   Clear
8:55 PM 62.2 °F - 51.6 °F 68% 30.27 in 10.0 mi Calm Calm - N/A   Clear
8:56 PM 62.1 °F - 51.6 °F 69% 30.27 in 10.0 mi Calm Calm - N/A   Clear
9:18 PM 60.3 °F - 53.4 °F 78% 30.27 in 10.0 mi Calm Calm - N/A   Clear
9:36 PM 60.8 °F - 52.9 °F 75% 30.28 in 10.0 mi Calm Calm - N/A   Clear
9:55 PM 60.8 °F - 52.5 °F 74% 30.28 in 10.0 mi Calm Calm - N/A   Clear
10:19 PM 59.9 °F - 53.2 °F 79% 30.28 in 10.0 mi Calm Calm - N/A   Clear
10:36 PM 59.2 °F - 53.4 °F 81% 30.28 in 10.0 mi Calm Calm - N/A   Clear
10:55 PM 59.5 °F - 53.6 °F 81% 30.28 in 10.0 mi Calm Calm - N/A   Clear
10:56 PM 59.4 °F - 53.6 °F 81% 30.28 in 10.0 mi Calm Calm - N/A   Clear
11:15 PM 59.7 °F - 53.6 °F 80% 30.28 in 10.0 mi Calm Calm - N/A   Scattered Clouds
11:20 PM 60.1 °F - 53.4 °F 79% 30.28 in 10.0 mi Calm Calm - N/A   Mostly Cloudy
11:36 PM 60.6 °F - 52.7 °F 75% 30.28 in 10.0 mi Calm Calm - N/A   Overcast
11:55 PM 60.3 °F - 52.5 °F 76% 30.28 in 10.0 mi Calm Calm - N/A   Overcast
11:56 PM 60.4 °F - 52.2 °F 74% 30.28 in 10.0 mi Calm Calm - N/A   Overcast